Content
SEND FEEDBACK

Daily
Averages
Monthly
Summary
United States of America

CHIEFLAND, FLORIDA


Home > North America > United States > Florida
Elevation: 35 feet     Latitude: 29 25N     Longitude: 082 49W

WEATHER
 
SELECT A DAY
Number of Records: 150,260;   Date Range: 1/1/95 - 7/27/14
 
SHARE

PRINT THIS DATA

[ ← Previous Day ]
WEATHER ALMANAC - JANUARY 23, 2013
[ Next Day → ]
[ °C ]   °F
Weather ElementAverageHighLow
Temperature47.2 °F66.9 °F (3:53 pm)30 °F (6:53 am)
Dewpoint33.1 °F42.1 °F (6:53 pm)26.1 °F (7:53 am)
Humidity64 %89 % (2:53 am)30 % (12:53 pm)
Barometer30.35 in30.43 in (9:53 am)30.31 in (2:53 pm)
Wind Speed2.7 mph10.4 mph (11:53 am)
Weather ElementAverage
Wind DirectionNNE (33 °)

Weather ElementTotal
Precipitation---
Heating Degree Days16.6 (Base 65)
Averaged from 23 records on January 23, 2013
WEATHER CONDITIONS BREAKOUT
WIND DIRECTION BREAKOUT
WEATHER BY HOUR - JANUARY 23, 2013
[ °C ]   °F
Local TimeTemperatureDewpointHumidityBarometerVisibilityWind DirectionWind SpeedGust SpeedPrecipitationEventsConditions
1:53 AM35.1 °F30.0 °F82 %30.33 inCalm
2:53 AM33.1 °F30.0 °F89 %30.33 inCalm
3:53 AM32.0 °F28.0 °F85 %30.33 inCalm
4:53 AM32.0 °F28.9 °F88 %30.33 inCalm
5:53 AM30.9 °F27.0 °F85 %30.34 inCalm
6:53 AM30.0 °F27.0 °F88 %30.36 inCalm
7:53 AM30.0 °F26.1 °F85 %30.38 inCalm
8:53 AM39.9 °F32.0 °F73 %30.41 inCalm
9:53 AM50.0 °F28.9 °F44 %30.43 inNE (40°)8.1 mph
10:53 AM55.0 °F28.0 °F35 %30.43 inVariable5.8 mph
11:53 AM60.1 °F28.9 °F31 %30.40 inNNE (20°)10.4 mph
12:53 PM62.1 °F30.0 °F30 %30.37 inNE (40°)8.1 mph
1:53 PM64.0 °F33.1 °F31 %30.33 inNNW (340°)6.9 mph
2:53 PM66.0 °F35.1 °F32 %30.31 inNNE (20°)6.9 mph
3:53 PM66.9 °F36.0 °F32 %30.31 inVariable5.8 mph
4:53 PM64.9 °F36.0 °F34 %30.31 inNNE (20°)3.5 mph
5:53 PM59.0 °F41.0 °F51 %30.31 inCalm
6:53 PM55.0 °F42.1 °F62 %30.32 inWest (280°)5.8 mph
7:53 PM52.0 °F42.1 °F69 %30.32 inCalm
8:53 PM46.0 °F39.9 °F79 %30.32 inCalm
9:53 PM41.0 °F37.9 °F89 %30.33 inCalm
10:53 PM41.0 °F37.9 °F89 %30.33 inCalm
11:53 PM39.0 °F36.0 °F89 %30.32 inCalm
Hourly data recorded from KCTY, located miles away from Chiefland, Florida







STORIES FROM OUR PARTNERS